This demonstration page uses our WeatherBlox Daily Observations layout. Learn more.

Left ArrowRight Arrow

34.16533, -84.80231

Hourly Observations for October 1, 2015

Temp ( °F °C ) Dew Point ( °F °C ) Humidity (%) Winds ( mph kmh ) Pressure ( in mb ) Visibility ( mi km ) Precip ( " mm )
12:41 am 00:41 Cloudy 68 20 63 17.2 84 84 VRB 5 7 29.88 1012 10 16 0.00 0.00
12:53 am 00:53 Cloudy 68 20 63 17.2 84 84 VRB 5 7 29.83 1010 10 16 0.00 0.00
1:53 am 01:53 Cloudy 67 19.4 63 17.2 87 87 VRB 5 7 29.82 1010 10 16 0.00 0.00
2:53 am 02:53 Cloudy 66 18.9 62 16.7 87 87 VRB 5 7 29.82 1010 10 16 0.00 0.00
3:53 am 03:53 Cloudy 66 18.9 62 16.7 87 87 N 5 7 29.81 1010 10 16 0.00 0.00
4:53 am 04:53 Cloudy 66 18.9 62 16.7 87 87 NNW 3 6 29.80 1009 10 16 0.00 0.00
5:53 am 05:53 Cloudy 65 18.3 62 16.7 90 90 N 3 6 29.81 1009 10 16 0.00 0.00
6:53 am 06:53 Cloudy 65 18.3 62 16.7 90 90 Calm 29.81 1010 10 16 0.00 0.00
7:53 am 07:53 Cloudy 65 18.3 62 16.7 90 90 VRB 6 9 29.83 1010 10 16 0.00 0.00
8:53 am 08:53 Cloudy 66 18.9 63 17.2 90 90 N 3 6 29.83 1010 10 16 0.00 0.00
9:53 am 09:53 Cloudy 67 19.4 63 17.2 87 87 NNW 3 6 29.83 1010 10 16 0.00 0.00
10:53 am 10:53 Cloudy 67 19.4 64 17.8 91 91 NNW 3 6 29.84 1011 10 16 0.00 0.00
11:11 am 11:11 Cloudy 67 19.4 64 17.8 91 91 N 5 7 29.88 1012 10 16 0.00 0.00
11:53 am 11:53 Cloudy 68 20 64 17.8 87 87 Calm 29.83 1010 10 16 0.00 0.00
12:29 pm 12:29 Cloudy 68 20 65 18.3 90 90 Calm 29.85 1011 10 16 0.00 0.00
12:53 pm 12:53 Cloudy 69 20.6 65 18.3 87 87 Calm 29.83 1010 10 16 0.00 0.00
1:25 pm 13:25 Cloudy 69 20.6 65 18.3 87 87 NNW 5 7 29.85 1011 10 16 0.00 0.00
1:53 pm 13:53 Cloudy 69 20.6 65 18.3 87 87 N 6 9 29.83 1010 7 11 0.00 0.00
2:53 pm 14:53 Cloudy 70 21.1 65 18.3 84 84 NNE 10 17 29.81 1010 10 16 0.00 0.00
3:53 pm 15:53 Cloudy 70 21.1 65 18.3 84 84 NNE 7 11 29.80 1009 10 16 0.00 0.00
4:13 pm 16:13 Cloudy 70 21.1 65 18.3 84 84 N 6 9 29.83 1010 10 16 0.00 0.00
4:26 pm 16:26 Cloudy 70 21.1 64 17.8 82 82 NNE 8 13 29.83 1010 10 16 0.00 0.00
4:53 pm 16:53 Cloudy 69 20.6 64 17.8 84 84 N 8 13 29.80 1009 10 16 0.00 0.00
5:15 pm 17:15 Cloudy 69 20.6 64 17.8 84 84 NNE 10 17 29.83 1010 10 16 0.00 0.00
5:53 pm 17:53 Cloudy with Light Rain 66 18.9 64 17.8 93 93 N 7 11 29.80 1009 4 6 0.00 0.03
6:28 pm 18:28 Cloudy with Mist and Fog 65 18.3 65 18.3 100 100 N 6 9 29.83 1010 4 6 0.01 0.25
6:44 pm 18:44 Cloudy with Mist and Fog 65 18.3 64 17.8 97 97 N 6 9 29.83 1010 5 8 0.01 0.25
6:53 pm 18:53 Cloudy with Mist and Fog 65 18.3 64 17.8 97 97 N 6 9 29.82 1010 3 5 0.01 0.25
7:15 pm 19:15 Cloudy with Rain 65 18.3 65 18.3 100 100 N 5 7 29.83 1010 3 4 0.08 2.03
7:29 pm 19:29 Cloudy with Light Rain 65 18.3 64 17.8 97 97 N 6 9 29.85 1011 6 10 0.10 2.54
7:53 pm 19:53 Cloudy 64 17.8 64 17.8 100 100 N 5 7 29.82 1010 7 11 0.10 2.54
8:21 pm 20:21 Cloudy 64 17.8 64 17.8 100 100 Calm 29.85 1011 7 11 0.01 0.25
8:50 pm 20:50 Cloudy 64 18 63 17 94 94 VRB 3 6 29.85 1011 8 13 0.01 0.25
8:53 pm 20:53 Cloudy 64 17.8 63 17.2 96 96 VRB 3 6 29.83 1010 9 14 0.01 0.25
9:06 pm 21:06 Cloudy 64 17.8 63 17.2 96 96 NW 3 6 29.85 1011 8 13 0.00 0.00
9:53 pm 21:53 Cloudy 63 17.2 62 16.7 97 97 Calm 29.84 1010 10 16 0.01 0.25
10:53 pm 22:53 Cloudy 63 17.2 62 16.7 97 97 VRB 5 7 29.84 1011 10 16 0.03 0.76
11:23 pm 23:23 Cloudy with Light Rain 62 16.7 61 16.1 96 96 N 7 11 29.88 1012 6 10 0.02 0.51
11:53 pm 23:53 Cloudy 62 16.7 61 16.1 96 96 Calm 29.83 1010 10 16 0.02 0.51

Powered by AerisWeather